GS-1

Last updated on Mon Oct 14 2024 00:02:42 GMT+0000 (Coordinated Universal Time)

1 56372U 23060C 24286.99371649 -.00000144 00000+0 00000+0 0 9992 2 56372 1.1387 86.6437 0002795 254.3443 120.3486 1.00241420 1400
UTC large
Height (km)
Speed (km/s)
/
Latitude / Longitude
Inclination (degrees)
Orbital Period (minutes)
Azimuth
Elevation
Range (km)
Doppler Factor

Next 0 passes for location: London (51.5072 / 0.1276)

Sorry there are no passes over London.